sat.trackr.live / text

‹ back to catalog

STARLINK-35129

NORAD 66077 · 2025-235V

PAYLOAD ACTIVE UNKNOWN

§ Identity

Operator
Country
US
Launch date
2025-10-19
Launch site
AFETR
Launch vehicle
Mass (kg)
RCS (m²)

Purposes: comms

External: N2YO · Heavens-Above · Gunter

§ Orbital elements

Epoch: 2026-09-20T03:47:55.534560Z

Period
93.85 min
Inclination
53.1606°
Eccentricity
0.0000275
Mean motion
15.34404663 rev/d
Perigee alt
462.5 km
Apogee alt
462.9 km
Semi-major
6,840.8 km
B*
5.7078e-4
RAAN
59.2751°
Arg perigee
41.1948°
Mean anomaly
318.9076°
Rev number
5,273

§ Raw data

STARLINK-351291 66077U 25235V   26263.15828165  .00018960  00000+0  57078-3 0  99912 66077  53.1606  59.2751 0000275  41.1948 318.9076 15.34404663 52736

JSON: /api/v1/satellites/66077 · /tle

For live sub-satellite position, see the globe view (requires WebGL).

§ Visibility from observer

Set your observer location to see the next 7 days of passes ≥ 10°. The values pass through the URL so the page stays shareable.

No JS? Fill the form by hand. The geolocation button needs JavaScript.